Tracking 29091 objects as of 17-Jul-2024
HD Live streaming from Space Station
objects crossing your sky now

SL-14 R/B

Track SL-14 R/B now!
10-day predictions


NORAD ID: 12988
Int'l Code: 1981-117B
Perigee: 606.2 km
Apogee: 628.7 km
Inclination: 82.5 °
Period: 96.9 minutes
Semi major axis: 6988 km
RCS: 4.5053 m2 (large)
Launch date: December 3, 1981
Source: Commonwealth of Independent States (former USSR) (CIS)
Launch site: PLESETSK MISSILE AND SPACE COMPLEX (PKMTR)

Note: This is a ROCKET BODY
Your satellite tracking list
Your tracking list is empty




NASA's NSSDC Master Catalog

Two Line Element Set (TLE):
1 12988U 81117B   24198.94899741  .00001012  00000-0  11273-3 0  9992
2 12988  82.5247 165.8569 0016097 300.4970  59.4657 14.86057363282656
Source of the keplerian elements: AFSPC